User: anonymous
Location: Oshawa
(43.9000°N, 78.8670°W)
Time: 19:37:55
(UTC-04:00)
Language:

Altair - Orbit

View from above orbital plane
View from above orbital plane
View from above satellite
View from above satellite

Ground track
Ground track

The orbit data is extracted from the following two-line orbital elements,

1 00050U 60009B   14106.85623326 -.00000106  00000-0 -18252-3 0   369
2 00050 047.2307 275.5452 0114005 089.6951 271.6902 12.20083116395535
Epoch (UTC): 16 April 2014 20:32:58
Eccentricity: 0.0114005
inclination: 47.2307°
perigee height: 1501 km
apogee height: 1683 km
right ascension of ascending node: 275.5452°
argument of perigee: 89.6951°
revolutions per day: 12.20083116
mean anomaly at epoch: 271.6902°
orbit number at epoch: 39553

The dashed part of the orbit path shows where the satellite is in the earth's shadow,  

DLR